Wind_Speed
61 61 62 60 58 56 54 53 54 54 54 55 56 56 56 56 54 53 51 49 49 51 51 51 52 52 49 42 39 41 43 44 43 40 39 38 36 33 31 31 30 29 28 29 31 31 30 29 29 29 30 30 30 29 30 29 28 28 27 26 25 26 25 23 23 24 24 25 26 26 25 25 25 24 22 22 22 23 24 25 25 25 26 26 25 25
62 64 62 57 55 56 54 51 52 53 54 55 55 55 56 57 56 54 54 52 52 54 53 53 54 54 52 46 41 43 45 45 44 43 41 40 38 36 34 33 33 33 33 33 32 31 30 30 30 31 31 31 31 31 30 29 29 29 29 27 26 27 26 26 25 25 25 26 27 26 25 25 25 24 23 23 23 24 25 26 26 25 26 26 26 26
65 64 59 55 54 57 56 52 50 51 54 56 55 55 57 58 57 56 55 54 54 55 55 55 57 56 54 51 45 44 45 46 46 45 44 42 41 39 37 35 35 36 36 34 33 32 32 32 33 34 33 32 31 31 30 30 30 30 29 27 27 27 27 27 27 26 27 28 28 27 26 26 25 25 25 24 24 26 28 28 27 27 27 27 27 27
66 61 55 54 55 56 57 54 49 49 52 55 55 55 56 57 58 57 55 55 54 55 56 56 58 59 56 54 50 46 46 47 47 47 46 44 43 41 39 37 37 37 38 37 36 35 35 35 36 37 36 34 32 31 30 31 31 31 29 28 27 27 27 28 28 28 28 29 29 28 28 28 26 26 26 26 27 30 31 30 30 30 29 29 29 29
63 57 53 53 53 54 58 59 54 50 49 52 53 53 52 52 55 55 54 55 55 55 55 56 59 60 58 57 54 49 48 49 50 50 48 47 45 44 42 40 38 38 39 40 39 38 38 38 38 39 38 36 35 33 32 33 32 31 30 29 28 28 28 28 29 29 29 29 29 30 30 29 29 28 28 28 30 33 33 32 32 32 31 31 31 31
62 58 55 53 53 55 58 61 60 55 49 48 49 48 48 50 52 53 53 55 57 56 55 56 60 61 58 57 56 53 51 50 51 52 50 48 46 46 44 42 40 39 39 40 41 41 41 41 40 40 39 39 38 36 36 35 34 32 30 30 30 29 30 30 30 30 30 30 30 30 31 31 31 30 30 30 32 34 34 34 34 33 33 32 32 32
64 61 58 55 55 56 58 60 60 58 56 54 52 49 51 54 54 54 55 56 57 56 55 56 60 62 60 58 57 56 54 51 52 53 51 50 49 47 46 44 43 42 41 40 42 43 43 43 42 42 41 41 41 40 39 37 36 34 33 32 32 32 32 32 33 33 32 31 30 31 31 31 31 31 31 32 33 34 34 34 35 35 34 34 33 33
65 63 61 58 57 58 60 59 56 57 59 59 56 54 55 57 57 55 55 56 56 55 57 56 57 62 63 59 56 56 56 53 52 53 52 52 52 49 47 46 45 44 44 43 43 43 44 44 44 45 44 44 44 42 41 40 39 38 37 35 34 35 35 35 35 35 34 33 33 32 32 32 31 31 32 33 34 34 34 34 35 35 36 35 34 34
64 63 62 59 58 59 58 54 52 56 60 57 53 54 56 57 56 52 50 51 50 52 56 54 53 59 61 58 54 54 56 54 50 51 52 53 53 51 48 46 45 45 46 46 46 46 46 46 47 47 47 47 46 45 43 42 42 41 40 39 37 37 37 37 37 36 36 36 35 35 34 34 33 34 34 34 34 34 34 34 35 36 36 36 36 35
62 62 61 60 60 58 55 53 54 57 59 57 52 50 52 52 50 46 45 43 42 48 52 48 49 55 57 55 52 52 54 53 49 48 50 52 52 52 49 45 44 45 48 50 49 49 49 50 50 50 50 50 49 47 46 45 44 43 43 41 40 40 39 39 39 38 38 38 38 37 36 36 36 36 37 37 36 36 36 35 36 36 37 37 37 37
63 62 62 63 61 58 55 55 56 58 61 60 57 50 46 45 43 42 44 42 41 46 46 41 43 50 55 57 56 53 52 51 51 49 48 49 50 50 47 43 42 45 48 50 50 50 50 51 52 52 52 51 51 50 49 48 46 45 45 44 42 42 41 40 40 40 40 40 40 40 40 39 39 39 39 39 38 39 39 38 38 38 38 38 39 39
66 65 65 64 61 59 59 60 59 62 64 64 63 58 50 47 44 43 45 45 47 50 45 39 40 46 53 57 57 54 50 50 52 51 48 47 46 46 46 43 43 45 47 48 50 50 51 51 52 52 51 51 51 51 51 51 50 48 47 46 45 44 43 43 43 43 43 43 43 43 43 43 43 42 42 41 41 41 41 41 41 40 40 40 40 41
69 69 67 64 63 62 62 63 63 65 67 67 67 66 62 57 52 49 49 49 53 54 51 47 46 48 51 51 52 52 48 45 46 48 47 46 47 47 47 47 47 47 48 48 49 51 52 52 52 52 52 51 51 51 52 52 52 51 51 50 49 48 47 47 46 46 46 47 47 47 46 46 46 45 45 44 43 43 43 43 43 43 42 42 42 43
70 69 67 65 65 64 64 66 66 65 66 67 66 67 70 67 61 57 55 54 57 56 53 52 51 53 50 45 46 48 46 42 40 41 43 44 46 47 48 49 49 49 50 50 50 51 51 51 52 53 54 54 54 53 54 54 54 54 53 53 52 52 51 51 50 50 50 50 50 50 49 48 48 47 47 47 46 46 46 45 45 45 45 44 44 45
69 71 71 68 66 65 64 63 63 62 64 67 66 68 74 74 69 66 62 59 58 54 51 51 52 54 48 43 43 46 46 44 42 43 44 44 46 47 48 50 51 52 53 54 54 53 52 52 53 54 56 57 57 57 57 57 58 58 58 57 56 55 54 54 53 53 53 53 52 52 51 51 50 50 49 49 49 49 49 48 48 47 47 47 47 47
65 68 68 66 66 65 63 62 62 64 67 69 71 72 76 77 74 72 68 65 62 59 56 54 55 54 46 41 43 45 46 47 47 47 46 46 48 48 49 51 54 57 59 60 60 58 57 57 57 56 57 58 59 59 59 59 60 60 61 61 61 60 59 58 57 56 56 56 55 55 54 53 52 52 52 52 52 52 52 52 52 51 51 50 50 50
64 64 61 59 62 62 61 62 63 66 68 70 73 76 75 75 75 74 74 73 72 70 66 59 56 54 49 45 44 45 46 48 48 47 46 48 49 49 50 51 53 55 58 60 61 60 60 60 60 59 57 58 59 59 60 61 61 61 62 63 63 63 63 62 61 60 59 59 58 58 57 56 56 55 55 54 54 55 54 54 54 54 54 54 54 54
64 64 62 60 60 60 60 64 65 66 69 73 75 75 72 72 73 72 73 73 74 74 72 68 61 57 56 53 48 48 48 48 49 49 50 52 52 51 52 53 54 54 54 54 55 56 57 57 58 57 56 56 56 56 57 58 59 61 61 62 63 63 64 63 63 62 61 61 60 60 59 59 58 57 56 55 55 54 54 54 55 55 55 56 56 56
65 64 64 62 60 59 61 66 69 69 71 74 75 73 71 72 72 73 73 73 75 77 77 76 72 68 67 62 55 54 53 52 53 55 56 56 54 52 51 52 53 52 51 50 50 51 52 53 53 51 50 51 52 54 54 54 55 57 59 60 61 62 62 62 62 61 61 60 60 59 58 58 57 56 55 54 54 54 54 55 55 56 56 57 58 58
65 64 64 62 60 60 63 67 70 72 73 73 74 73 73 74 74 76 77 74 74 75 74 75 75 73 72 65 59 58 58 58 59 58 60 59 54 51 50 48 48 48 46 44 44 46 48 49 49 48 46 46 47 49 50 51 52 53 55 57 58 59 60 60 60 59 59 59 58 57 56 55 54 54 54 54 55 55 56 57 57 58 58 59 59 60
67 65 63 61 60 62 64 66 65 66 71 73 74 73 73 74 76 78 80 77 73 71 70 72 73 74 69 61 57 58 59 61 62 60 61 61 58 54 52 47 44 45 45 41 41 44 46 47 47 47 46 45 44 44 46 48 50 51 53 54 55 57 58 58 58 58 57 57 56 55 55 54 55 56 56 57 58 59 59 59 60 60 60 60 60 60
67 68 68 66 65 65 64 63 60 61 65 68 70 71 70 72 75 78 80 80 77 74 72 72 74 74 69 61 59 60 60 61 62 62 62 61 60 58 55 48 44 46 46 44 44 46 46 47 47 47 47 45 44 44 44 46 48 49 51 52 53 54 55 56 57 57 57 56 56 56 56 57 58 59 59 60 61 61 61 61 61 61 61 60 60 61
66 67 69 70 69 67 66 64 63 62 62 63 66 69 69 72 75 76 76 77 76 75 74 73 76 74 66 60 60 61 62 61 61 62 61 61 61 59 55 51 49 50 50 49 50 50 50 50 51 50 50 49 47 46 46 47 47 49 50 51 52 53 54 55 56 57 57 57 58 58 59 60 61 61 61 61 61 61 61 61 61 62 61 61 61 60
68 67 67 69 67 66 66 65 64 63 63 64 66 68 70 72 74 74 75 74 73 74 73 73 78 74 63 58 59 60 62 61 59 60 59 59 59 58 56 55 55 57 57 56 56 55 55 56 56 57 56 55 53 51 51 51 50 50 51 51 52 52 53 54 55 57 58 59 60 61 62 62 63 63 62 61 61 61 61 61 61 61 61 61 60 59
66 66 65 67 66 66 67 68 66 64 65 66 66 65 66 68 70 73 74 74 75 76 74 76 80 72 59 56 58 61 67 67 64 64 64 63 63 62 63 64 64 64 63 63 62 61 61 61 61 61 61 60 59 57 58 57 56 55 53 53 53 52 53 54 55 56 58 59 61 62 63 64 63 63 62 61 61 61 61 61 60 60 59 59 59 58
64 66 67 68 68 69 70 70 67 65 65 67 66 64 64 64 67 70 72 75 77 76 74 77 78 68 59 58 59 63 70 72 70 72 71 71 72 71 72 73 72 71 70 68 67 65 65 64 63 63 63 62 62 61 61 62 61 61 60 59 57 55 55 55 56 57 57 58 59 60 61 63 64 64 63 63 62 62 61 61 60 59 58 57 57 56
65 68 69 70 70 69 67 66 66 65 66 67 67 65 64 64 65 66 70 73 73 73 74 75 73 68 63 62 62 66 72 72 71 72 72 71 72 73 74 74 73 73 72 71 70 69 68 67 66 64 62 61 61 62 62 62 62 62 63 64 63 62 60 59 58 58 59 59 59 59 60 61 62 64 65 65 65 63 62 61 60 60 59 58 57 56
67 69 70 71 71 69 67 67 68 68 67 65 64 63 63 63 63 66 69 68 66 70 73 69 68 68 65 62 63 67 70 69 69 71 71 70 70 69 68 68 67 67 67 68 68 68 68 67 66 64 61 59 58 59 59 59 59 60 60 62 63 64 65 64 63 63 63 63 63 63 63 62 62 63 64 65 66 66 65 64 62 61 60 59 59 58
66 68 67 68 68 66 66 67 67 66 64 63 62 61 61 62 64 66 66 64 65 70 69 63 63 66 63 60 61 63 65 65 66 69 70 68 66 63 59 56 55 55 57 59 61 62 62 62 62 61 59 57 55 54 54 55 56 57 58 58 59 60 62 64 65 67 67 68 67 67 67 67 67 67 66 66 66 67 67 67 66 65 63 62 61 60
64 66 65 65 65 64 65 66 65 65 66 66 66 65 64 63 64 64 62 60 63 66 64 61 63 65 62 59 58 59 62 65 66 68 69 67 62 58 54 50 48 48 49 51 52 53 55 55 55 55 55 54 54 53 52 52 53 54 55 55 56 57 57 59 61 63 66 68 69 70 70 70 71 71 70 69 69 69 69 69 69 67 66 65 64 63
66 65 63 64 66 66 67 66 65 66 67 66 65 64 64 64 62 60 56 55 57 59 57 57 61 62 58 55 56 58 60 64 67 66 65 65 63 59 57 55 53 52 51 50 50 51 52 53 53 55 56 57 57 57 56 54 53 53 53 54 55 56 56 57 58 60 61 63 65 67 69 70 71 71 71 72 72 72 72 73 72 71 69 68 67 66
66 66 64 64 64 64 65 64 62 62 64 68 67 64 62 62 60 57 55 54 57 58 57 59 61 57 52 51 54 57 59 62 65 61 58 59 60 59 60 61 59 57 55 54 54 54 55 56 58 59 61 62 62 62 60 59 57 56 55 55 56 57 58 59 60 60 61 62 63 64 66 67 68 70 71 72 73 74 75 76 76 75 73 72 71 70
60 64 65 66 63 59 60 60 57 56 62 68 66 60 59 59 58 58 59 61 62 63 63 65 64 58 53 53 54 54 55 58 58 55 52 52 54 56 58 57 57 56 55 56 58 59 60 60 60 61 62 62 62 62 62 61 61 60 59 59 59 59 60 61 62 63 64 65 66 66 67 68 69 70 71 72 73 75 76 77 78 78 77 76 75 74
54 59 64 67 66 60 57 57 58 61 66 63 56 53 56 57 58 59 61 61 63 65 66 66 63 58 55 52 48 45 46 49 50 51 52 52 53 54 53 53 54 56 58 60 62 62 63 63 62 62 61 61 60 61 61 62 63 63 63 63 62 62 62 62 63 64 65 66 68 69 70 71 71 72 73 74 75 76 77 78 79 79 80 80 80 80
51 53 57 62 65 64 62 61 65 70 68 57 50 51 53 53 53 55 56 55 54 54 56 56 55 53 51 49 46 44 45 47 49 51 52 52 52 53 54 56 59 61 63 64 64 64 64 64 64 64 63 63 63 64 65 66 67 67 67 67 66 65 64 63 62 62 63 65 66 68 69 71 72 73 73 74 75 76 77 78 79 80 81 81 82 83
50 50 52 55 58 62 66 70 73 75 69 60 56 55 55 55 56 57 56 55 52 50 50 49 47 46 46 46 46 47 48 51 53 54 54 54 55 57 60 63 65 65 66 66 66 66 67 67 67 67 67 68 69 69 70 71 72 72 72 71 69 68 66 64 62 61 61 61 62 63 65 66 67 69 70 72 73 74 75 76 78 79 81 82 83 84
48 48 50 53 54 56 63 69 73 74 73 69 65 61 59 59 58 58 59 59 59 59 57 53 50 49 48 48 49 51 53 56 57 57 56 57 59 61 63 65 66 65 65 65 66 66 67 67 68 69 70 70 71 71 71 71 71 70 69 68 67 65 64 63 62 61 60 60 60 60 60 62 63 64 65 67 68 70 71 73 74 76 78 80 81 83
46 47 48 50 52 52 55 61 66 69 72 71 68 66 64 63 59 57 58 60 59 58 56 52 51 52 53 55 56 57 59 61 58 54 55 58 60 61 63 64 64 64 64 64 64 65 66 66 67 67 67 66 66 66 65 64 64 63 63 62 62 61 60 59 59 59 59 59 59 60 61 62 63 64 64 65 66 66 67 69 70 72 75 76 78 80
48 49 50 54 57 56 56 60 64 64 62 61 62 64 65 65 60 55 55 55 52 51 52 52 52 54 56 57 57 58 61 61 55 51 54 58 59 60 61 62 62 63 63 64 64 64 65 64 63 62 61 60 60 59 58 57 57 56 56 56 57 57 57 58 59 60 60 62 63 63 64 65 66 67 67 67 67 68 68 68 68 69 71 73 75 77
47 43 44 50 57 56 54 57 61 61 57 56 59 61 62 61 58 55 56 53 47 47 49 50 52 54 54 54 55 56 58 57 53 52 55 57 57 59 60 60 61 62 62 63 63 62 62 60 59 58 57 57 56 55 54 52 51 51 51 52 53 54 56 58 60 62 64 66 67 68 68 69 69 70 69 69 69 69 69 70 70 70 70 71 72 74
47 42 40 42 47 48 48 49 52 53 53 53 53 53 51 51 53 55 56 52 48 48 48 47 49 50 49 50 52 52 53 53 52 54 56 58 58 59 59 59 60 60 60 60 59 58 57 57 56 56 55 55 54 52 50 49 49 49 50 52 53 55 57 59 61 64 66 68 69 70 71 71 72 73 73 72 71 70 70 70 71 71 72 72 72 72
53 50 46 43 42 43 44 45 46 47 46 43 43 44 44 46 51 52 50 48 49 49 48 47 49 49 49 50 51 51 53 54 54 56 57 57 57 57 58 58 58 58 58 57 56 55 55 55 55 55 54 52 51 50 50 49 50 51 53 54 56 57 59 61 63 65 66 68 69 71 72 74 75 75 76 76 75 74 73 71 70 69 69 70 70 70
52 53 49 44 41 39 38 40 42 43 42 40 41 44 45 46 48 47 45 46 48 49 50 52 53 53 53 54 54 54 55 55 55 56 56 55 55 55 56 56 56 56 56 55 55 55 55 55 56 55 53 51 50 50 51 51 53 54 55 57 58 59 61 63 64 65 66 68 70 72 73 74 75 76 78 77 76 75 73 71 68 65 64 63 63 63
46 51 51 48 44 41 40 38 35 34 35 36 38 41 42 42 43 43 45 47 47 48 50 53 54 55 55 54 55 56 55 55 54 54 53 53 53 53 54 54 55 56 56 55 56 55 55 55 55 54 52 51 51 53 54 55 56 57 58 59 61 62 64 64 65 65 67 69 71 73 74 75 76 77 78 77 75 72 69 67 64 61 58 56 56 57
40 44 47 47 44 41 39 36 32 30 31 32 34 36 38 40 42 44 46 47 47 47 49 50 53 55 55 54 55 54 53 52 52 51 51 52 52 52 53 54 55 56 56 56 56 56 55 54 54 52 52 53 55 56 57 58 59 59 60 62 64 65 65 65 66 67 69 71 73 74 75 76 78 79 77 74 71 69 66 63 60 57 54 51 51 51
39 39 41 42 42 41 39 37 35 33 34 35 36 37 38 40 42 44 46 48 49 50 50 51 53 54 55 55 54 52 51 51 50 50 50 50 51 51 52 52 54 55 56 56 56 56 55 54 53 53 54 56 58 59 60 61 61 62 63 65 66 66 66 66 67 69 71 73 75 76 77 78 79 79 75 70 67 65 64 61 59 56 54 51 50 49
40 40 41 41 42 43 41 39 37 37 38 39 40 41 41 42 43 45 47 49 51 52 53 54 54 55 55 54 53 52 51 50 49 49 49 49 50 50 50 51 52 52 53 54 54 54 55 55 55 56 57 59 60 61 62 63 64 65 66 67 68 68 68 68 69 71 73 75 77 78 79 79 80 78 73 67 64 63 62 61 60 58 56 54 53 51
40 42 43 43 43 43 41 40 39 40 42 42 43 44 44 45 46 47 48 50 51 52 53 54 55 55 55 54 53 52 51 50 50 50 50 50 51 51 51 51 51 51 52 53 53 54 55 55 57 58 59 61 62 63 64 65 66 67 69 70 70 71 71 71 72 74 76 78 79 79 79 79 79 77 70 65 64 62 61 59 59 59 58 57 55 53
42 44 46 46 46 45 43 42 42 44 44 45 45 46 47 49 49 49 50 51 52 53 54 55 56 57 57 55 54 52 50 50 49 50 50 51 52 52 52 52 52 52 53 54 54 56 56 57 58 59 60 62 63 64 66 67 68 70 71 72 73 74 74 75 76 78 79 80 80 79 79 79 78 74 68 64 63 63 61 59 58 57 56 56 56 56
42 44 46 47 47 47 45 45 46 47 47 47 47 48 50 51 52 52 53 53 54 54 55 56 57 57 56 55 53 51 50 49 49 49 50 50 51 52 53 53 54 54 55 56 57 58 59 60 61 61 62 63 65 66 67 69 71 73 74 75 76 76 77 78 79 80 80 80 80 79 79 78 75 70 66 64 63 62 61 59 58 57 56 54 54 55
42 44 45 46 46 47 47 47 49 49 50 51 51 52 52 53 54 55 55 56 56 56 56 56 55 55 54 53 52 52 51 50 50 50 50 50 51 52 53 54 55 56 57 58 59 60 62 62 63 64 65 66 67 68 70 72 74 75 76 77 78 79 79 80 80 80 80 80 79 79 78 76 72 68 66 64 63 62 60 58 57 56 56 55 54 53
Wind_Direction
235 234 234 235 237 239 241 242 243 243 242 241 242 242 243 243 243 243 244 244 244 243 244 245 247 247 246 238 234 238 242 245 247 248 249 251 252 251 249 249 252 253 251 250 250 253 255 256 256 255 255 255 255 253 253 253 255 257 258 259 260 261 261 262 261 260 262 262 262 264 267 270 272 274 273 273 275 277 277 277 278 281 283 285 286 287
234 234 235 236 236 237 239 240 240 240 241 241 241 241 242 243 242 242 243 244 244 244 243 245 246 247 247 242 236 237 242 245 247 248 249 250 252 252 251 249 249 250 250 249 250 252 254 255 255 256 255 255 256 256 256 257 257 258 258 260 261 263 264 263 260 259 258 258 258 260 262 264 266 268 270 271 273 274 275 276 278 280 281 283 286 287
234 235 236 235 234 234 236 237 238 238 239 240 240 240 240 241 242 241 242 243 244 244 243 244 246 247 247 245 239 237 241 246 248 249 250 251 251 251 251 250 248 249 250 250 251 253 253 253 254 254 254 254 255 256 258 259 259 259 258 258 260 261 263 263 261 258 256 256 257 257 258 259 262 265 267 270 273 273 272 274 276 278 280 283 286 286
236 239 238 234 233 233 234 236 238 239 238 238 239 239 240 241 242 242 242 244 245 245 244 244 245 246 246 246 242 239 240 244 247 249 251 252 252 251 250 249 248 249 250 250 250 250 251 251 253 254 255 255 255 256 257 257 257 258 258 258 259 260 261 262 261 260 258 257 257 258 258 259 262 263 266 269 271 272 272 274 275 276 279 281 282 283
238 239 237 234 234 235 235 235 236 238 239 239 239 241 243 244 245 246 246 247 247 246 246 246 246 245 245 246 244 241 240 242 244 247 249 251 252 252 250 249 248 247 248 250 250 249 250 250 252 255 257 258 257 257 256 256 256 256 258 258 258 260 262 262 262 261 261 260 259 259 259 261 262 263 265 267 268 270 273 276 277 278 279 279 280 281
237 236 234 232 233 234 235 236 236 238 241 241 241 242 245 246 247 247 247 248 247 247 247 248 249 246 245 247 246 244 242 242 244 246 248 250 250 252 252 250 249 248 247 248 250 251 251 251 252 254 257 258 259 258 257 257 257 257 256 257 258 259 261 263 263 262 261 261 261 261 262 262 262 263 265 265 266 269 273 276 278 279 279 279 280 281
235 234 233 231 231 232 234 235 235 237 241 243 244 246 248 247 247 247 247 247 247 247 246 247 250 249 245 245 247 246 244 242 244 246 247 249 250 251 251 250 249 248 247 246 247 249 252 253 254 254 255 257 258 258 258 259 259 259 257 255 256 257 258 260 263 264 264 263 263 264 265 265 266 266 265 265 266 268 271 274 277 278 279 280 280 280
235 236 235 233 232 233 234 236 236 237 241 245 247 249 249 246 246 246 247 248 248 247 245 245 249 251 247 244 245 248 247 243 243 246 247 247 249 250 250 249 248 248 248 247 245 246 249 252 254 255 256 256 258 258 260 260 260 260 258 256 255 255 256 257 260 262 264 265 266 267 268 269 269 268 267 267 268 269 271 272 275 277 278 279 280 280
238 237 236 234 233 233 235 238 238 237 240 244 246 246 244 242 242 242 245 248 248 248 245 243 246 250 249 246 245 247 249 246 242 244 246 247 248 249 249 248 247 247 247 248 247 247 248 250 252 254 256 257 258 259 260 260 260 260 259 257 256 256 256 257 257 258 260 262 265 268 269 270 270 269 269 269 269 270 271 272 273 275 276 278 279 280
235 235 235 234 232 232 234 236 236 236 238 240 241 239 234 234 236 238 242 244 247 249 246 245 249 253 252 250 248 247 249 250 246 243 245 247 248 248 249 248 246 246 247 248 248 249 250 250 251 253 255 257 258 259 258 258 258 259 260 259 257 257 257 257 258 258 259 260 261 264 265 266 267 268 268 269 270 271 271 271 272 273 274 277 278 279
230 231 231 230 230 230 230 231 233 235 236 236 236 233 230 230 230 232 236 236 243 248 245 246 252 256 256 253 251 249 248 250 249 245 242 245 248 248 248 248 247 248 249 249 249 249 250 251 252 253 254 255 257 258 258 258 258 258 259 259 258 257 257 258 259 259 260 260 261 262 264 264 265 265 266 267 268 269 270 270 271 271 273 274 276 278
230 230 230 230 230 228 227 228 229 232 234 233 233 233 234 235 230 229 230 231 237 242 243 243 245 250 252 250 250 249 247 247 248 247 244 244 247 248 248 248 249 250 252 252 252 251 251 251 252 254 255 256 257 257 258 259 259 259 259 258 257 257 258 258 259 259 259 259 261 263 264 265 265 265 265 265 265 266 267 268 269 270 271 272 273 275
233 234 234 233 229 226 225 225 224 228 232 232 232 233 235 237 235 233 232 233 237 241 243 242 241 245 246 246 248 249 246 244 245 249 248 246 247 248 250 252 252 254 254 255 255 254 254 255 255 255 255 256 257 258 259 259 259 259 259 259 258 258 259 260 260 259 258 259 260 262 263 264 264 265 266 266 265 265 265 266 267 268 269 269 270 271
232 232 231 229 227 226 225 225 224 227 231 233 233 234 237 239 240 239 237 238 241 242 243 241 242 247 244 240 245 249 250 248 245 247 249 249 249 249 252 254 255 256 258 258 258 257 257 259 261 261 260 258 258 258 259 260 261 260 260 259 259 260 261 262 262 262 261 261 261 262 263 263 263 264 265 266 266 266 266 266 266 267 267 267 267 268
234 234 233 233 232 232 231 230 230 229 232 235 235 235 239 243 244 243 242 242 243 244 244 243 247 251 245 238 244 250 254 255 253 254 255 255 256 254 254 255 257 260 262 262 261 259 258 259 262 264 264 263 262 261 260 260 260 261 262 261 261 261 261 262 262 263 263 263 263 263 263 263 263 263 264 265 266 267 267 268 268 267 267 267 267 267
235 237 239 240 239 238 236 234 232 229 229 232 233 234 237 241 244 245 245 246 247 248 248 245 248 254 248 241 246 251 256 261 262 263 263 263 263 262 260 260 260 262 264 265 264 263 263 262 263 264 264 264 264 264 263 262 261 261 262 262 262 262 262 262 262 262 262 263 263 264 264 264 264 264 264 265 265 266 267 268 268 268 268 267 267 267
232 235 237 236 236 236 236 234 232 230 230 232 233 234 235 239 243 245 247 248 249 251 251 247 251 258 255 249 251 255 258 263 266 268 268 267 267 267 267 266 265 265 265 266 266 267 267 266 266 265 263 262 262 263 264 264 263 263 262 262 262 263 263 263 263 262 262 262 262 263 264 264 265 265 266 266 266 267 267 267 268 268 268 268 267 267
233 236 237 236 236 237 236 234 232 230 230 231 233 234 236 239 242 244 247 248 249 251 251 250 253 257 257 253 252 256 259 262 266 269 269 269 269 269 269 268 267 266 266 266 266 268 269 268 268 266 264 262 262 262 262 262 263 263 263 263 263 263 263 263 263 263 263 263 263 263 264 265 265 266 267 267 267 267 267 268 268 268 268 268 268 268
235 237 237 237 236 235 234 234 233 231 230 232 233 234 236 240 241 242 245 247 249 250 250 251 251 252 253 255 257 261 262 263 266 267 267 268 268 267 266 264 264 265 265 267 266 266 267 268 268 268 266 264 262 262 262 262 262 262 263 263 264 264 264 264 265 265 264 264 264 264 265 265 265 266 266 267 267 268 268 269 269 269 269 269 269 269
234 235 235 235 233 231 231 231 231 231 231 232 233 233 235 238 239 242 246 248 250 251 251 251 251 250 253 257 260 262 262 262 264 264 265 266 266 265 264 262 262 262 264 266 268 266 265 265 266 267 267 266 264 263 263 263 263 262 262 262 263 263 264 265 265 265 265 265 265 265 264 264 264 265 266 267 268 268 269 269 269 269 269 269 270 270
231 232 233 232 229 227 228 230 232 233 232 232 233 233 234 235 237 240 244 247 248 249 249 250 249 250 252 255 257 258 258 260 262 262 263 264 263 262 263 264 263 263 264 267 270 270 268 266 265 265 267 269 269 267 266 265 265 264 264 263 263 263 264 264 265 266 266 266 265 265 265 265 266 267 268 269 269 269 269 269 269 270 270 270 271 271
230 233 234 232 231 230 232 235 235 235 235 235 236 236 236 237 240 242 245 246 247 249 250 251 253 254 255 255 255 255 256 258 260 260 260 259 260 260 260 261 263 265 266 268 270 272 273 273 272 270 271 273 274 272 270 268 267 266 266 265 265 265 265 265 265 265 266 266 266 267 268 270 271 272 273 273 272 271 270 270 270 270 271 271 271 271
229 232 234 234 234 235 237 236 234 233 234 235 235 235 236 238 240 243 246 247 249 252 253 255 257 256 254 253 252 250 252 255 256 255 254 253 255 257 258 259 262 265 266 266 267 269 272 274 276 276 276 277 278 277 275 273 271 269 268 267 267 267 267 267 266 266 267 267 268 269 271 273 275 276 276 275 274 273 273 272 272 272 272 272 272 271
227 229 232 233 234 234 234 233 233 233 233 233 233 233 234 235 238 241 244 246 248 250 252 253 254 252 249 248 248 247 248 249 249 249 249 250 251 254 257 260 262 265 266 267 267 267 267 269 271 273 274 276 278 279 279 278 276 274 272 270 269 268 269 269 269 269 270 270 271 273 274 275 276 276 276 275 275 274 274 274 274 274 274 274 273 273
225 226 227 230 230 230 230 230 230 230 231 233 234 235 235 236 238 240 242 244 245 246 246 248 251 249 246 245 245 245 246 245 245 248 249 251 253 255 258 261 264 266 268 269 269 269 269 269 269 270 271 272 274 275 276 277 278 278 277 275 274 272 272 272 272 272 273 274 274 275 276 277 277 277 277 276 276 276 275 275 275 275 274 274 274 274
224 224 225 227 228 228 229 231 232 233 234 235 234 234 235 236 238 240 241 243 245 245 245 247 249 249 246 244 243 244 248 249 250 252 255 257 259 260 261 263 266 268 270 271 272 272 272 272 272 271 271 271 271 271 271 272 274 276 277 278 278 277 275 275 274 275 276 277 277 278 279 278 278 278 277 277 277 276 276 275 275 274 273 273 273 273
226 227 226 228 231 232 234 238 240 240 239 238 238 237 238 238 240 241 242 244 246 247 247 248 250 251 247 245 244 246 251 255 257 259 261 262 263 264 264 265 267 268 270 271 272 273 273 273 274 274 273 272 270 269 269 270 271 272 273 275 276 276 275 276 276 276 277 278 278 279 279 279 279 279 279 278 278 277 276 276 275 274 273 272 271 271
227 228 228 230 232 234 237 240 241 242 242 243 244 244 244 244 244 244 245 246 248 250 250 249 251 253 250 247 247 249 254 258 261 262 264 264 265 266 267 267 268 269 269 270 271 272 272 273 274 274 274 273 272 271 271 271 271 271 271 271 272 272 272 272 273 274 276 277 278 278 278 278 279 279 279 279 278 278 277 276 275 274 273 272 271 270
230 230 230 232 234 234 236 238 239 240 241 242 242 243 244 245 246 247 248 248 249 251 252 252 253 254 252 248 248 250 254 258 260 261 263 265 266 267 267 268 268 268 268 269 269 270 271 272 273 274 274 274 274 274 274 273 273 272 272 271 271 270 269 269 269 269 270 271 273 274 275 276 277 277 277 277 276 276 276 275 274 274 273 272 272 271
231 231 230 232 234 234 234 236 238 240 241 241 241 241 242 243 244 246 247 247 249 251 252 252 252 252 250 248 249 250 252 255 258 259 261 263 265 266 266 266 265 264 264 265 266 267 269 270 271 272 273 274 276 277 276 275 274 273 272 272 271 271 270 269 269 268 267 267 267 268 268 270 271 273 273 274 274 274 274 273 273 273 272 272 272 272
230 231 230 232 234 234 234 237 239 241 242 242 241 240 239 239 239 240 240 241 245 248 248 248 250 249 249 249 249 248 249 252 256 258 259 260 262 263 263 263 262 262 263 263 264 265 267 269 270 272 274 276 277 278 278 277 276 275 274 273 272 271 270 270 269 269 269 268 268 267 267 267 267 267 268 268 268 269 270 271 272 272 272 272 272 272
230 230 228 229 233 233 232 236 239 242 243 242 239 236 234 233 233 234 236 239 244 247 248 248 248 248 248 249 249 249 248 250 252 254 254 256 257 258 259 260 261 263 265 268 270 271 273 274 275 276 277 278 279 279 278 278 277 276 275 275 274 274 273 272 271 271 270 270 270 269 269 268 267 267 266 265 265 265 266 268 269 270 270 271 272 272
230 230 227 228 233 232 228 231 235 240 242 240 236 233 231 231 234 238 242 245 248 249 249 250 251 251 252 251 250 248 245 245 246 246 247 249 251 253 255 257 260 263 267 271 274 277 278 279 279 279 280 280 279 279 279 279 279 278 278 277 277 277 277 276 276 275 274 273 272 272 271 271 270 270 269 269 268 267 266 267 267 267 268 270 271 272
229 230 228 230 235 235 230 231 235 239 240 236 232 233 234 236 240 244 247 248 249 249 249 250 252 251 248 244 240 238 237 238 239 240 242 245 247 251 254 257 261 265 268 271 273 275 277 278 279 279 279 279 279 280 280 280 281 281 281 281 280 280 279 279 278 277 276 276 275 274 274 274 273 273 273 272 272 271 271 270 269 268 268 268 268 269
228 228 228 231 237 238 236 236 239 242 241 235 231 234 238 240 244 247 249 248 247 248 249 247 246 244 240 235 234 235 237 239 240 241 244 247 251 254 258 261 263 265 268 270 272 273 274 275 276 276 277 278 279 280 280 281 282 283 284 284 284 284 284 283 282 280 279 278 277 277 276 276 275 275 274 274 273 273 273 273 272 272 271 271 270 269
228 228 231 233 237 239 239 239 241 244 243 238 235 237 240 243 246 248 249 247 246 248 248 247 246 244 241 237 236 235 237 241 244 247 251 254 256 257 260 262 264 265 266 267 268 270 271 272 274 275 276 277 278 279 280 281 282 283 284 285 286 286 287 287 286 285 284 283 282 281 280 279 278 277 276 275 275 274 273 272 272 272 272 272 272 271
228 231 234 234 236 238 240 241 242 244 244 242 240 238 241 246 249 251 252 251 250 251 252 250 250 249 247 245 242 241 242 246 249 251 254 257 258 258 259 260 261 263 264 266 267 269 270 272 273 274 274 275 276 277 278 278 279 280 282 283 284 286 287 288 288 289 289 288 287 286 285 284 283 281 280 278 277 276 275 274 272 271 271 270 270 271
231 236 236 237 240 241 241 240 241 242 243 244 243 241 243 248 251 253 254 251 248 250 251 250 249 249 249 249 249 249 250 251 251 253 256 257 257 257 257 259 260 262 264 267 268 270 271 272 272 272 273 273 274 275 276 277 278 279 281 282 284 286 288 290 290 290 289 288 287 286 286 285 285 285 284 282 281 279 277 276 274 273 272 271 270 270
226 228 229 231 235 238 240 240 241 242 243 243 244 243 243 245 248 252 252 247 244 245 248 250 251 250 250 249 249 248 249 251 253 255 255 254 255 257 258 260 262 264 266 268 269 270 270 270 271 271 271 272 273 275 276 277 279 280 281 283 285 287 288 289 289 289 288 286 285 285 285 285 284 284 284 283 283 282 280 278 277 275 273 272 271 270
224 227 229 227 225 227 232 235 237 239 241 241 241 241 241 242 244 247 247 245 245 247 251 253 253 252 250 248 247 247 249 253 255 255 254 255 257 260 261 263 264 265 267 268 268 268 268 269 269 269 270 272 273 274 275 276 277 279 280 282 283 285 286 288 289 289 288 287 286 286 286 286 287 286 285 284 283 282 281 280 278 276 275 273 272 271
230 237 244 241 234 233 235 235 234 233 233 235 236 236 235 235 235 239 245 249 250 251 251 250 250 250 249 249 249 250 252 255 256 255 258 260 261 263 264 265 266 266 266 266 266 266 267 267 268 269 270 271 271 271 271 272 274 276 278 279 281 283 286 288 290 290 289 288 287 287 288 289 290 290 290 289 287 285 283 281 279 277 276 274 273 272
236 239 245 247 245 245 247 247 245 238 233 234 236 235 235 235 237 243 250 252 250 248 247 247 248 250 251 252 253 255 257 258 259 259 261 263 264 265 266 266 265 265 264 264 264 265 266 267 268 269 268 267 266 266 267 269 271 274 276 279 281 284 286 288 289 289 288 287 288 288 289 290 291 293 293 292 292 290 288 286 284 282 279 277 275 274
237 237 241 244 243 244 248 250 250 245 241 242 244 242 242 244 246 249 250 248 246 246 247 248 251 254 254 256 257 259 260 262 262 263 263 264 265 265 265 264 264 263 263 263 264 265 267 268 268 267 264 263 263 265 267 270 273 275 277 279 281 284 286 287 288 288 287 288 289 291 291 292 293 295 295 295 294 293 292 290 289 288 285 283 280 278
235 235 239 244 246 245 247 249 251 247 243 244 246 246 245 247 247 247 246 246 246 246 246 248 251 254 256 257 258 260 261 262 263 263 263 263 263 263 263 263 263 263 263 264 264 266 268 268 266 263 262 262 265 267 269 272 274 276 278 280 282 284 286 287 287 287 288 289 291 293 294 295 297 299 299 297 295 293 292 291 290 290 288 286 284 282
238 237 241 246 248 248 247 248 248 246 244 245 246 246 245 246 245 245 246 247 248 248 248 249 250 252 254 256 257 258 260 260 260 260 261 261 261 262 262 262 263 264 265 265 265 267 267 265 262 260 261 264 267 270 272 274 275 278 280 281 283 285 286 287 286 287 289 291 293 294 295 298 301 302 301 297 294 293 291 290 289 290 290 288 285 282
242 242 244 247 250 251 250 249 249 250 250 251 250 248 246 245 245 247 248 249 250 250 250 250 250 251 252 253 254 255 256 257 258 259 260 261 261 261 261 262 262 263 264 264 265 265 263 260 258 259 263 266 269 271 274 276 278 279 281 283 285 286 286 286 286 288 290 292 293 294 296 298 302 304 300 294 292 291 290 288 287 287 289 290 288 285
245 248 249 250 252 253 253 252 252 252 253 253 253 253 252 250 249 248 248 248 250 251 251 252 252 252 252 252 253 254 255 256 258 258 259 260 260 260 261 261 261 262 262 262 262 261 259 258 258 261 264 266 269 272 275 277 280 281 283 285 286 286 285 285 286 287 289 290 291 292 294 298 302 303 297 291 290 291 290 289 288 286 287 289 290 290
247 249 251 252 253 254 254 253 252 251 251 251 252 252 252 252 251 250 250 251 252 253 253 254 254 254 255 255 255 256 256 257 257 258 258 258 259 260 260 261 261 261 260 259 258 258 258 259 261 263 265 268 271 274 276 279 281 283 284 285 285 285 285 284 285 286 287 288 289 290 293 298 301 301 294 289 289 290 290 290 290 288 287 288 288 289
249 251 253 253 254 254 254 254 253 251 251 251 251 251 251 251 251 251 252 252 253 254 254 255 255 255 255 256 256 257 258 259 259 260 260 260 260 261 261 262 262 262 261 260 259 259 260 262 264 266 268 270 273 275 278 280 282 283 284 285 285 284 284 284 284 285 286 287 289 291 294 297 299 298 292 288 288 290 289 289 290 288 287 286 286 286
252 253 253 253 253 254 254 253 250 249 249 249 250 250 250 251 251 252 253 253 253 254 254 254 255 256 256 258 259 260 260 261 261 262 262 262 262 263 263 263 263 263 262 262 261 262 263 265 267 268 270 272 274 277 279 281 283 284 285 285 285 284 284 284 284 285 286 288 289 292 295 296 296 294 291 288 289 289 288 287 287 287 285 284 283 283
256 254 251 249 250 251 251 250 249 249 249 249 249 249 250 251 252 253 253 254 255 256 256 257 258 259 260 261 262 262 262 262 262 262 262 262 262 263 263 263 263 263 263 263 264 264 265 266 268 270 271 273 275 278 280 282 284 284 285 285 285 285 285 284 284 285 287 289 290 293 294 294 292 290 289 288 289 289 287 285 284 283 283 282 280 279
Height
5757 5758 5759 5767 5775 5779 5782 5784 5787 5790 5792 5793 5794 5796 5799 5801 5804 5808 5810 5812 5812 5813 5815 5817 5818 5819 5823 5830 5833 5831 5830 5831 5832 5835 5837 5838 5840 5843 5844 5845 5845 5846 5848 5847 5846 5847 5848 5849 5849 5849 5850 5851 5852 5852 5852 5853 5854 5854 5854 5855 5856 5856 5856 5858 5858 5857 5858 5857 5856 5856 5857 5856 5856 5856 5856 5855 5854 5854 5853 5851 5851 5851 5851 5850 5850 5849
5748 5749 5757 5769 5774 5775 5777 5779 5781 5783 5785 5785 5788 5791 5793 5795 5798 5802 5803 5806 5806 5807 5810 5812 5812 5813 5817 5823 5828 5827 5827 5827 5829 5830 5832 5834 5836 5838 5840 5841 5842 5842 5843 5843 5844 5845 5846 5846 5846 5845 5846 5847 5848 5849 5849 5851 5851 5851 5851 5852 5853 5853 5853 5854 5854 5854 5854 5853 5853 5853 5854 5853 5853 5853 5852 5852 5852 5851 5850 5848 5848 5848 5848 5847 5847 5847
5739 5745 5760 5767 5768 5769 5770 5773 5775 5777 5778 5778 5782 5785 5786 5789 5792 5795 5798 5800 5801 5802 5805 5806 5805 5807 5811 5816 5822 5824 5824 5824 5825 5826 5828 5830 5832 5834 5835 5837 5837 5838 5839 5841 5842 5843 5843 5843 5842 5841 5842 5843 5845 5846 5847 5848 5848 5848 5848 5849 5850 5850 5850 5850 5850 5851 5850 5850 5850 5850 5850 5850 5850 5850 5849 5849 5849 5848 5846 5846 5846 5845 5845 5845 5844 5843
5736 5749 5761 5760 5761 5765 5766 5768 5770 5771 5772 5773 5776 5778 5781 5785 5786 5790 5794 5794 5796 5797 5799 5801 5800 5801 5805 5809 5814 5819 5820 5820 5821 5821 5823 5825 5827 5829 5831 5832 5833 5834 5835 5837 5838 5838 5839 5839 5838 5838 5839 5840 5842 5843 5844 5844 5844 5844 5845 5846 5847 5847 5847 5847 5847 5847 5846 5846 5846 5846 5846 5846 5847 5847 5846 5847 5846 5844 5843 5843 5843 5842 5842 5842 5842 5840
5738 5750 5754 5754 5759 5762 5761 5763 5764 5766 5769 5770 5772 5775 5780 5783 5784 5788 5791 5790 5791 5792 5794 5796 5793 5795 5800 5803 5808 5814 5815 5816 5817 5816 5818 5820 5821 5823 5825 5827 5828 5829 5831 5831 5833 5834 5834 5835 5835 5835 5836 5837 5838 5840 5840 5840 5840 5842 5842 5843 5843 5843 5843 5843 5843 5843 5843 5843 5843 5843 5843 5843 5843 5843 5843 5843 5842 5840 5839 5839 5839 5839 5839 5839 5839 5838
5735 5742 5745 5749 5753 5754 5755 5757 5760 5764 5767 5767 5769 5774 5777 5779 5780 5783 5785 5785 5785 5786 5791 5791 5785 5789 5796 5798 5802 5807 5810 5812 5813 5812 5814 5816 5817 5818 5820 5823 5824 5824 5826 5827 5827 5828 5829 5830 5831 5832 5832 5833 5834 5835 5836 5836 5837 5838 5839 5840 5840 5840 5840 5839 5839 5839 5839 5839 5839 5839 5840 5840 5840 5840 5840 5840 5838 5837 5836 5836 5836 5835 5835 5835 5835 5835
5728 5735 5739 5743 5746 5748 5748 5751 5757 5762 5762 5762 5767 5772 5772 5772 5775 5777 5778 5778 5778 5781 5786 5785 5780 5782 5789 5793 5796 5800 5803 5808 5808 5808 5811 5812 5812 5813 5815 5818 5819 5819 5820 5821 5822 5823 5824 5825 5827 5827 5828 5828 5829 5830 5831 5832 5834 5835 5835 5836 5836 5836 5836 5836 5835 5835 5835 5836 5836 5836 5836 5836 5837 5837 5837 5836 5835 5834 5834 5833 5832 5832 5831 5831 5831 5831
5726 5731 5734 5738 5741 5742 5742 5747 5755 5758 5756 5757 5765 5768 5767 5768 5769 5771 5772 5771 5773 5776 5777 5778 5778 5776 5779 5788 5792 5793 5795 5801 5804 5804 5806 5807 5806 5808 5810 5812 5814 5814 5815 5816 5817 5818 5819 5820 5821 5822 5823 5823 5824 5826 5827 5828 5830 5830 5831 5832 5832 5832 5832 5832 5832 5832 5832 5832 5832 5832 5833 5833 5833 5833 5832 5832 5831 5831 5831 5830 5829 5828 5827 5827 5827 5827
5725 5724 5728 5734 5735 5735 5740 5748 5753 5753 5751 5755 5761 5761 5761 5763 5763 5765 5765 5765 5769 5769 5767 5773 5776 5771 5772 5782 5788 5787 5788 5793 5799 5801 5801 5802 5802 5803 5805 5806 5808 5809 5809 5810 5811 5813 5814 5815 5816 5817 5818 5819 5820 5822 5823 5824 5824 5825 5826 5827 5828 5828 5828 5828 5828 5829 5829 5829 5829 5828 5829 5829 5829 5828 5828 5827 5827 5827 5827 5827 5826 5824 5823 5823 5822 5822
5714 5717 5724 5726 5727 5733 5741 5746 5747 5747 5748 5753 5757 5756 5757 5758 5758 5759 5760 5762 5764 5760 5762 5772 5774 5769 5769 5775 5781 5782 5783 5788 5794 5797 5796 5797 5798 5799 5800 5802 5803 5803 5803 5803 5805 5807 5808 5809 5810 5811 5813 5814 5815 5817 5818 5819 5819 5820 5821 5822 5823 5823 5823 5823 5824 5824 5825 5825 5824 5824 5824 5824 5824 5823 5823 5823 5823 5823 5822 5822 5822 5821 5820 5819 5818 5817
5703 5710 5713 5713 5720 5731 5738 5739 5740 5741 5743 5748 5752 5752 5752 5752 5753 5755 5755 5758 5756 5750 5759 5770 5770 5766 5763 5766 5772 5775 5781 5784 5786 5790 5792 5792 5793 5794 5796 5798 5798 5797 5797 5797 5799 5802 5802 5803 5804 5806 5807 5809 5810 5812 5812 5813 5815 5815 5816 5817 5817 5817 5818 5819 5819 5819 5820 5819 5819 5819 5819 5819 5819 5818 5818 5818 5818 5817 5817 5817 5817 5816 5816 5815 5814 5812
5696 5700 5702 5708 5718 5724 5728 5730 5733 5734 5735 5740 5745 5747 5748 5746 5748 5748 5748 5749 5745 5744 5756 5764 5763 5758 5754 5759 5764 5768 5775 5779 5779 5783 5787 5789 5789 5790 5791 5792 5792 5792 5792 5792 5794 5796 5797 5798 5800 5801 5802 5804 5805 5806 5807 5808 5809 5810 5811 5811 5812 5812 5812 5813 5814 5814 5814 5814 5814 5814 5814 5814 5813 5813 5813 5813 5813 5812 5812 5812 5811 5811 5811 5811 5810 5808
5689 5694 5699 5706 5710 5714 5719 5721 5724 5725 5726 5732 5738 5742 5741 5739 5741 5740 5740 5740 5737 5743 5754 5757 5754 5748 5748 5756 5758 5761 5768 5772 5775 5778 5780 5783 5784 5784 5785 5786 5787 5787 5786 5788 5789 5790 5791 5793 5795 5796 5798 5798 5799 5801 5801 5802 5803 5804 5804 5805 5805 5806 5806 5807 5807 5808 5808 5808 5808 5808 5808 5808 5807 5807 5807 5807 5807 5807 5806 5806 5806 5806 5806 5806 5805 5804
5681 5686 5690 5693 5698 5705 5711 5712 5717 5721 5724 5728 5733 5737 5736 5734 5734 5733 5734 5734 5734 5741 5749 5750 5746 5739 5744 5755 5756 5757 5762 5766 5771 5773 5774 5777 5779 5780 5781 5780 5782 5781 5781 5783 5784 5785 5787 5789 5790 5791 5792 5793 5794 5795 5796 5796 5796 5797 5798 5799 5799 5800 5800 5800 5800 5801 5801 5801 5801 5801 5801 5802 5801 5801 5801 5801 5801 5800 5800 5800 5800 5800 5800 5800 5799 5798
5675 5677 5680 5687 5696 5703 5708 5712 5717 5722 5723 5724 5728 5731 5729 5728 5728 5728 5731 5731 5732 5739 5743 5743 5738 5734 5744 5755 5755 5755 5757 5760 5766 5768 5769 5772 5773 5775 5777 5776 5777 5776 5775 5776 5778 5781 5784 5785 5786 5786 5786 5787 5788 5789 5790 5790 5790 5791 5791 5792 5792 5793 5793 5794 5794 5794 5794 5794 5795 5795 5795 5795 5795 5795 5795 5795 5795 5794 5794 5794 5794 5794 5794 5793 5793 5792
5670 5671 5680 5691 5697 5700 5706 5710 5713 5714 5714 5715 5719 5719 5718 5722 5723 5724 5727 5728 5729 5731 5733 5734 5732 5733 5745 5753 5753 5753 5755 5756 5759 5762 5765 5767 5767 5770 5771 5772 5772 5770 5770 5770 5772 5776 5777 5778 5780 5780 5781 5781 5781 5782 5782 5783 5784 5784 5784 5784 5785 5786 5786 5787 5788 5788 5788 5788 5788 5788 5789 5789 5789 5789 5789 5789 5788 5788 5788 5787 5787 5787 5787 5786 5786 5786
5664 5668 5679 5688 5688 5693 5701 5702 5703 5705 5707 5709 5709 5708 5714 5720 5719 5718 5720 5721 5721 5721 5723 5728 5729 5732 5741 5747 5749 5751 5752 5753 5753 5755 5758 5759 5760 5763 5764 5766 5766 5765 5765 5765 5767 5769 5769 5770 5772 5773 5774 5774 5774 5775 5775 5776 5776 5777 5777 5777 5778 5778 5778 5779 5780 5781 5781 5781 5781 5782 5782 5782 5782 5782 5782 5782 5782 5781 5781 5781 5780 5780 5779 5779 5779 5778
5662 5667 5675 5680 5682 5689 5694 5693 5694 5698 5698 5698 5697 5703 5714 5714 5711 5713 5712 5710 5712 5714 5718 5724 5727 5730 5733 5738 5745 5748 5750 5752 5751 5750 5750 5749 5753 5756 5758 5759 5759 5759 5760 5761 5763 5763 5762 5763 5764 5765 5767 5767 5767 5768 5768 5769 5769 5770 5770 5770 5770 5770 5771 5771 5772 5773 5773 5774 5774 5774 5775 5775 5775 5775 5775 5775 5775 5774 5774 5773 5772 5772 5772 5771 5771 5771
5660 5663 5667 5673 5678 5683 5684 5682 5685 5688 5688 5689 5692 5701 5706 5702 5703 5706 5702 5701 5705 5707 5710 5717 5722 5723 5724 5732 5742 5745 5748 5750 5747 5745 5744 5742 5745 5749 5750 5752 5752 5753 5754 5756 5757 5757 5757 5757 5757 5758 5758 5759 5760 5761 5761 5762 5763 5763 5763 5763 5763 5763 5764 5764 5764 5765 5765 5766 5766 5767 5767 5767 5767 5767 5767 5767 5767 5767 5766 5766 5765 5765 5764 5763 5763 5762
5655 5656 5659 5667 5671 5672 5671 5670 5672 5676 5680 5684 5687 5693 5696 5696 5700 5700 5696 5697 5700 5700 5703 5709 5712 5714 5721 5734 5741 5742 5745 5745 5741 5740 5740 5737 5739 5741 5743 5746 5748 5749 5750 5751 5751 5751 5752 5752 5752 5752 5751 5752 5753 5754 5755 5756 5756 5756 5756 5756 5757 5757 5757 5757 5757 5757 5758 5758 5759 5759 5759 5760 5759 5760 5760 5760 5759 5759 5758 5758 5757 5756 5756 5756 5755 5754
5648 5649 5652 5659 5661 5660 5658 5660 5667 5672 5675 5677 5680 5686 5690 5693 5694 5693 5690 5690 5691 5692 5696 5699 5699 5706 5722 5734 5736 5737 5740 5738 5735 5736 5736 5733 5733 5735 5737 5740 5742 5743 5744 5746 5745 5744 5745 5746 5746 5746 5745 5746 5747 5748 5749 5749 5749 5749 5749 5749 5750 5750 5751 5751 5751 5751 5751 5751 5752 5752 5752 5752 5752 5752 5752 5752 5752 5751 5751 5750 5749 5749 5749 5749 5748 5746
5642 5644 5646 5649 5650 5651 5654 5661 5668 5669 5669 5673 5678 5682 5687 5689 5686 5684 5681 5682 5685 5687 5689 5691 5690 5701 5723 5732 5731 5733 5735 5733 5731 5732 5732 5729 5727 5730 5733 5735 5736 5736 5737 5740 5740 5739 5739 5739 5740 5740 5740 5741 5741 5743 5744 5743 5743 5743 5743 5743 5744 5744 5745 5745 5745 5744 5744 5745 5744 5744 5744 5744 5744 5744 5745 5744 5744 5743 5743 5742 5742 5741 5741 5741 5740 5739
5636 5638 5639 5639 5644 5649 5653 5657 5659 5660 5664 5669 5670 5672 5678 5677 5675 5676 5676 5679 5685 5684 5686 5689 5685 5695 5720 5727 5726 5730 5729 5727 5727 5725 5725 5724 5722 5724 5726 5728 5730 5729 5730 5733 5733 5734 5734 5734 5733 5733 5734 5735 5736 5737 5738 5737 5737 5737 5737 5738 5738 5739 5739 5738 5738 5738 5738 5738 5737 5737 5737 5736 5736 5736 5736 5736 5735 5735 5734 5734 5733 5733 5733 5733 5732 5732
5627 5631 5632 5633 5639 5644 5645 5648 5651 5655 5658 5657 5657 5662 5666 5667 5669 5672 5673 5677 5679 5677 5683 5685 5676 5688 5715 5722 5721 5724 5722 5721 5721 5718 5718 5719 5718 5718 5719 5720 5722 5722 5723 5725 5726 5728 5729 5729 5728 5727 5728 5730 5731 5733 5732 5731 5731 5731 5732 5732 5732 5733 5732 5732 5732 5731 5731 5731 5730 5729 5729 5728 5728 5728 5728 5728 5727 5727 5726 5726 5725 5725 5725 5725 5724 5724
5620 5624 5626 5626 5630 5633 5635 5637 5641 5645 5647 5648 5653 5658 5662 5665 5667 5666 5667 5670 5668 5669 5677 5676 5668 5687 5713 5716 5714 5716 5712 5713 5715 5712 5712 5712 5711 5713 5712 5712 5714 5715 5716 5717 5718 5720 5720 5721 5721 5721 5722 5724 5725 5727 5726 5725 5726 5726 5726 5726 5726 5727 5726 5726 5726 5725 5725 5724 5723 5722 5721 5721 5721 5720 5720 5720 5720 5720 5719 5719 5718 5718 5717 5717 5717 5716
5615 5617 5618 5618 5618 5621 5623 5627 5632 5639 5642 5644 5649 5653 5656 5660 5659 5659 5662 5661 5658 5664 5672 5668 5668 5688 5706 5707 5707 5708 5703 5705 5708 5706 5705 5705 5703 5705 5705 5705 5706 5708 5709 5710 5711 5711 5711 5712 5713 5715 5718 5719 5719 5718 5718 5719 5721 5721 5721 5720 5721 5721 5720 5720 5719 5718 5718 5717 5717 5716 5715 5714 5714 5713 5713 5713 5712 5712 5712 5711 5711 5711 5710 5709 5709 5709
5608 5609 5612 5612 5613 5618 5624 5629 5634 5638 5639 5640 5644 5649 5652 5653 5654 5655 5654 5651 5655 5663 5664 5664 5671 5684 5694 5699 5702 5700 5696 5697 5701 5699 5698 5697 5695 5696 5698 5698 5700 5702 5703 5703 5703 5703 5703 5703 5704 5707 5710 5710 5711 5711 5711 5713 5714 5715 5715 5714 5714 5714 5714 5714 5713 5712 5712 5711 5711 5711 5709 5708 5707 5707 5706 5705 5705 5705 5704 5704 5704 5703 5703 5702 5702 5702
5600 5600 5604 5608 5610 5617 5625 5626 5627 5630 5634 5638 5643 5646 5648 5650 5649 5647 5646 5651 5659 5657 5654 5664 5673 5675 5684 5694 5696 5693 5692 5693 5694 5691 5688 5686 5686 5688 5690 5691 5694 5695 5695 5695 5695 5695 5694 5695 5696 5698 5699 5700 5701 5703 5705 5706 5706 5706 5707 5707 5706 5707 5707 5707 5707 5706 5705 5705 5704 5704 5703 5703 5701 5700 5700 5698 5698 5697 5697 5696 5696 5695 5695 5694 5694 5694
5593 5594 5601 5604 5606 5613 5617 5617 5619 5624 5628 5632 5635 5638 5641 5642 5641 5640 5643 5651 5654 5647 5650 5665 5669 5666 5675 5686 5688 5688 5689 5688 5684 5680 5676 5676 5678 5680 5682 5684 5686 5687 5687 5687 5688 5687 5687 5688 5689 5690 5690 5691 5693 5694 5696 5697 5697 5697 5697 5697 5698 5698 5699 5699 5699 5699 5698 5697 5697 5696 5696 5695 5694 5694 5693 5691 5691 5690 5689 5688 5688 5687 5687 5686 5686 5686
5587 5590 5597 5600 5601 5607 5609 5609 5613 5617 5618 5621 5625 5629 5632 5633 5633 5635 5640 5645 5644 5641 5648 5657 5657 5657 5667 5677 5681 5683 5682 5678 5673 5669 5670 5671 5672 5674 5676 5678 5679 5679 5679 5680 5681 5681 5681 5682 5683 5683 5683 5684 5685 5686 5687 5688 5688 5688 5689 5689 5689 5689 5689 5690 5690 5690 5690 5689 5688 5688 5688 5687 5686 5685 5685 5684 5683 5682 5681 5680 5679 5679 5678 5677 5677 5677
5581 5585 5592 5595 5595 5597 5601 5605 5608 5609 5610 5613 5616 5620 5623 5624 5625 5628 5632 5637 5636 5635 5643 5649 5646 5650 5662 5671 5673 5673 5672 5669 5664 5662 5665 5666 5667 5669 5671 5671 5672 5672 5673 5674 5675 5675 5676 5677 5677 5677 5677 5678 5678 5679 5679 5679 5679 5679 5680 5681 5681 5681 5681 5681 5681 5681 5680 5679 5679 5679 5678 5678 5678 5677 5676 5676 5675 5674 5673 5672 5671 5670 5670 5669 5669 5668
5577 5581 5587 5588 5585 5588 5596 5601 5601 5603 5604 5602 5604 5610 5614 5615 5618 5622 5627 5631 5630 5632 5639 5639 5637 5647 5661 5664 5662 5663 5665 5662 5657 5657 5659 5660 5662 5663 5662 5664 5665 5666 5667 5668 5668 5669 5670 5670 5671 5671 5670 5670 5670 5670 5670 5670 5671 5671 5671 5672 5672 5672 5672 5672 5672 5672 5671 5671 5670 5670 5669 5669 5668 5667 5667 5666 5666 5665 5665 5664 5662 5661 5661 5660 5659 5659
5572 5575 5580 5580 5578 5583 5591 5593 5595 5597 5590 5586 5594 5605 5610 5613 5617 5619 5621 5624 5626 5628 5629 5629 5634 5647 5655 5653 5652 5655 5655 5652 5651 5652 5652 5653 5654 5654 5655 5659 5660 5660 5661 5661 5661 5661 5661 5661 5662 5662 5662 5662 5662 5661 5661 5661 5661 5662 5662 5663 5663 5663 5663 5663 5663 5663 5662 5662 5661 5661 5660 5660 5659 5658 5657 5657 5656 5656 5655 5655 5654 5652 5652 5651 5650 5649
5567 5569 5574 5575 5574 5578 5584 5587 5589 5582 5572 5578 5595 5605 5607 5610 5612 5612 5614 5618 5620 5621 5621 5624 5632 5640 5642 5641 5644 5648 5646 5643 5644 5645 5645 5646 5648 5649 5652 5654 5654 5654 5654 5654 5654 5654 5654 5654 5654 5654 5654 5654 5653 5653 5652 5652 5652 5652 5653 5653 5654 5654 5654 5654 5653 5653 5652 5651 5651 5650 5650 5650 5649 5649 5648 5647 5646 5646 5645 5644 5644 5643 5642 5642 5640 5639
5562 5564 5567 5570 5571 5573 5577 5580 5575 5564 5565 5583 5597 5599 5600 5603 5604 5605 5608 5610 5612 5613 5616 5620 5625 5630 5632 5634 5637 5639 5638 5636 5635 5636 5639 5642 5644 5646 5647 5646 5646 5648 5648 5647 5647 5647 5647 5647 5647 5647 5647 5647 5646 5646 5645 5644 5644 5643 5643 5643 5643 5643 5643 5642 5642 5641 5641 5640 5639 5639 5639 5639 5638 5638 5637 5636 5636 5635 5634 5632 5632 5631 5631 5630 5629 5628
5558 5560 5562 5564 5565 5566 5567 5566 5562 5559 5568 5583 5589 5591 5594 5595 5596 5598 5600 5603 5606 5609 5611 5615 5620 5624 5625 5626 5628 5630 5630 5628 5627 5630 5635 5638 5640 5641 5641 5639 5639 5640 5640 5640 5640 5640 5640 5640 5640 5640 5641 5640 5640 5639 5638 5637 5637 5636 5635 5634 5633 5633 5632 5631 5630 5629 5629 5628 5628 5627 5627 5627 5627 5627 5626 5625 5624 5624 5623 5621 5621 5619 5619 5618 5617 5615
5552 5554 5556 5558 5558 5558 5558 5558 5560 5561 5565 5573 5580 5586 5589 5589 5591 5594 5595 5598 5602 5603 5605 5609 5614 5617 5619 5620 5621 5622 5621 5621 5622 5626 5631 5632 5633 5634 5633 5631 5631 5631 5632 5633 5633 5633 5633 5633 5633 5633 5633 5633 5633 5632 5632 5631 5630 5629 5628 5627 5626 5624 5623 5622 5621 5620 5619 5618 5617 5617 5616 5615 5616 5615 5615 5614 5614 5613 5611 5610 5610 5608 5607 5607 5606 5604
5548 5549 5551 5552 5551 5552 5553 5553 5555 5554 5557 5567 5578 5585 5586 5584 5587 5589 5587 5589 5593 5595 5598 5603 5607 5609 5611 5612 5612 5613 5613 5612 5616 5624 5627 5625 5624 5624 5624 5623 5624 5624 5625 5625 5625 5626 5626 5625 5625 5625 5625 5626 5625 5624 5624 5624 5623 5622 5621 5620 5619 5617 5616 5615 5614 5613 5612 5610 5609 5608 5607 5606 5605 5605 5604 5603 5603 5602 5601 5600 5599 5597 5596 5595 5595 5594
5541 5542 5544 5545 5544 5545 5546 5546 5547 5549 5557 5569 5576 5579 5577 5577 5581 5581 5576 5577 5587 5591 5593 5596 5599 5600 5601 5602 5603 5604 5602 5603 5613 5621 5619 5615 5615 5616 5616 5617 5617 5617 5617 5617 5618 5618 5617 5617 5618 5617 5617 5617 5617 5616 5616 5615 5615 5614 5613 5613 5612 5610 5609 5608 5607 5606 5605 5603 5601 5600 5598 5597 5596 5595 5594 5594 5593 5592 5591 5589 5588 5587 5585 5583 5583 5583
5532 5534 5535 5536 5538 5540 5541 5541 5542 5547 5557 5565 5567 5567 5568 5571 5576 5571 5564 5572 5586 5588 5587 5590 5590 5590 5592 5594 5594 5594 5594 5599 5608 5611 5607 5606 5608 5609 5608 5609 5609 5609 5610 5610 5610 5610 5610 5610 5610 5609 5609 5609 5609 5609 5608 5607 5607 5607 5606 5606 5605 5604 5603 5602 5601 5599 5597 5594 5592 5590 5588 5587 5585 5584 5584 5583 5583 5582 5581 5579 5578 5576 5575 5573 5572 5572
5527 5528 5529 5531 5533 5535 5536 5537 5539 5544 5551 5556 5558 5558 5560 5562 5562 5557 5561 5576 5584 5581 5581 5583 5581 5581 5585 5586 5585 5588 5590 5594 5598 5599 5598 5599 5601 5600 5600 5600 5600 5601 5602 5602 5602 5602 5602 5602 5602 5601 5601 5601 5601 5601 5601 5600 5600 5599 5599 5598 5598 5597 5597 5596 5594 5592 5589 5586 5584 5582 5579 5577 5575 5573 5571 5570 5571 5571 5570 5568 5567 5566 5564 5563 5562 5561
5523 5525 5526 5528 5529 5530 5531 5533 5535 5539 5546 5550 5550 5551 5552 5552 5552 5557 5567 5574 5572 5571 5574 5574 5572 5575 5578 5577 5578 5582 5583 5585 5588 5590 5590 5591 5591 5592 5592 5592 5592 5592 5593 5594 5594 5594 5594 5594 5593 5593 5592 5593 5593 5593 5593 5593 5592 5592 5591 5590 5590 5590 5589 5588 5586 5584 5581 5579 5576 5574 5572 5569 5566 5563 5561 5558 5558 5558 5557 5556 5554 5554 5553 5551 5551 5550
5519 5520 5522 5524 5526 5526 5527 5529 5531 5537 5543 5545 5543 5544 5547 5549 5551 5558 5563 5561 5560 5563 5565 5563 5564 5568 5568 5570 5572 5574 5575 5577 5579 5581 5582 5583 5583 5584 5585 5584 5584 5584 5585 5586 5586 5586 5586 5585 5585 5585 5584 5585 5585 5585 5585 5585 5584 5584 5583 5582 5582 5582 5581 5580 5578 5576 5573 5571 5568 5566 5564 5561 5558 5555 5551 5549 5547 5546 5545 5544 5542 5542 5541 5540 5539 5539
5512 5515 5517 5520 5523 5523 5525 5527 5531 5536 5540 5538 5536 5539 5542 5544 5547 5549 5549 5549 5552 5555 5556 5557 5559 5560 5561 5564 5565 5566 5569 5571 5571 5573 5574 5575 5576 5577 5577 5577 5577 5577 5577 5578 5578 5578 5578 5577 5577 5577 5577 5576 5577 5577 5577 5577 5576 5575 5574 5574 5573 5573 5573 5571 5570 5567 5565 5563 5560 5558 5555 5552 5549 5546 5542 5540 5538 5536 5535 5534 5533 5532 5531 5529 5528 5528
5509 5512 5515 5517 5519 5519 5521 5524 5528 5531 5532 5531 5531 5534 5535 5536 5538 5539 5540 5541 5544 5547 5550 5552 5553 5553 5555 5557 5558 5560 5562 5563 5563 5565 5566 5566 5568 5569 5569 5570 5570 5569 5569 5569 5570 5571 5570 5570 5570 5570 5569 5568 5569 5569 5569 5568 5568 5567 5566 5565 5565 5565 5564 5563 5561 5558 5556 5554 5552 5550 5547 5544 5541 5537 5534 5531 5528 5527 5526 5525 5524 5523 5521 5520 5519 5518
5504 5507 5510 5511 5512 5513 5516 5520 5523 5524 5525 5525 5526 5527 5528 5529 5531 5532 5533 5534 5536 5538 5542 5544 5546 5547 5549 5549 5551 5553 5553 5554 5556 5557 5557 5559 5560 5561 5561 5562 5562 5561 5561 5561 5561 5562 5562 5563 5563 5562 5561 5561 5560 5560 5560 5559 5559 5559 5558 5556 5556 5556 5555 5554 5552 5549 5547 5545 5543 5540 5538 5536 5533 5530 5526 5523 5520 5518 5517 5516 5515 5515 5513 5512 5510 5509
5499 5502 5504 5505 5506 5508 5511 5515 5518 5518 5518 5519 5519 5520 5521 5523 5524 5525 5526 5526 5528 5531 5534 5536 5538 5539 5540 5542 5544 5544 5544 5546 5548 5548 5549 5551 5551 5552 5553 5554 5553 5554 5553 5553 5553 5554 5554 5555 5555 5554 5554 5553 5552 5552 5551 5550 5549 5549 5548 5548 5547 5546 5545 5544 5542 5541 5538 5536 5533 5531 5528 5526 5524 5522 5518 5516 5513 5511 5509 5507 5506 5506 5506 5504 5502 5501
5494 5496 5497 5499 5501 5503 5506 5510 5511 5511 5511 5512 5513 5514 5515 5516 5517 5518 5519 5520 5522 5524 5526 5529 5530 5532 5533 5534 5535 5536 5537 5538 5539 5540 5542 5543 5543 5544 5545 5545 5546 5546 5546 5546 5546 5546 5546 5546 5546 5546 5545 5544 5543 5543 5542 5541 5540 5538 5538 5538 5538 5537 5536 5534 5532 5531 5529 5526 5524 5521 5519 5517 5515 5512 5510 5508 5506 5504 5502 5500 5498 5498 5497 5496 5494 5494
5489 5490 5492 5494 5495 5497 5500 5504 5504 5503 5503 5505 5507 5508 5509 5510 5511 5512 5514 5515 5516 5518 5520 5522 5523 5525 5526 5526 5527 5529 5529 5529 5530 5532 5532 5533 5535 5536 5536 5536 5537 5537 5537 5538 5538 5537 5538 5538 5538 5537 5536 5535 5534 5533 5532 5531 5530 5529 5529 5529 5528 5526 5526 5524 5523 5521 5519 5516 5514 5512 5509 5507 5505 5503 5501 5500 5499 5497 5495 5493 5491 5490 5490 5488 5485 5484
5484 5486 5488 5488 5489 5491 5495 5497 5496 5496 5497 5498 5500 5501 5501 5503 5505 5506 5507 5508 5509 5511 5513 5515 5516 5517 5518 5519 5521 5522 5522 5522 5522 5523 5524 5525 5526 5526 5527 5527 5528 5528 5529 5529 5529 5529 5529 5529 5528 5528 5527 5526 5525 5524 5523 5522 5520 5519 5519 5519 5517 5516 5515 5514 5513 5511 5508 5506 5504 5501 5499 5497 5495 5493 5492 5491 5490 5489 5487 5486 5484 5482 5481 5481 5478 5476
5479 5480 5481 5482 5484 5486 5488 5488 5489 5490 5491 5492 5493 5493 5494 5496 5497 5499 5500 5501 5502 5504 5506 5507 5509 5510 5511 5513 5513 5514 5515 5515 5515 5515 5516 5517 5517 5517 5518 5518 5518 5519 5519 5520 5520 5520 5520 5519 5519 5519 5518 5517 5516 5515 5514 5512 5510 5508 5508 5508 5507 5506 5505 5503 5502 5501 5498 5496 5493 5491 5489 5487 5486 5484 5483 5481 5480 5479 5478 5478 5477 5475 5473 5471 5470 5469